Location: Unspecified
(0.0000°N, 0.0000°E)
Time: 23:57:44
(UTC+00:00)

Envisat - Pass Details

Date: 13 July 2019
Orbit: 764 x 766 km, 98.1° (Epoch: 18 November)

Event Time Altitude Azimuth Distance (km) Brightness Sun altitude
Rises 18:31:21 0° 161° (SSE) 3,231 5.8 -5.9°
Reaches altitude 10° 18:33:42 10° 157° (SSE) 2,302 5.1 -6.5°
Maximum altitude 18:38:41 60° 78° (ENE) 875 3.1 -7.6°
Drops below altitude 10° 18:43:40 10° 359° (N) 2,292 5.8 -8.8°
Sets 18:45:59 0° 355° (N) 3,215 6.6 -9.3°
